Regional Weather Roundup
Issued by NWS

Home | Current Version | Previous Version | Text Only | Print | Product List | Glossary Off
Versions: 1 2 3 4 5 6 7 8 9 10 11 12 13 14 15 16 17 18 19 20 21 22 23 24 25 26 27 28 29 30 31 32 33 34 35 36 37 38 39 40 41 42 43 44 45 46 47 48 49 50

000
ASUS45 KTFX 300319
RWRMT
MONTANA HOURLY WEATHER ROUNDUP
NATIONAL WEATHER SERVICE GREAT FALLS MT
919 PM MDT SUN MAR 29 2015

NOTE: "FAIR" INDICATES FEW OR NO CLOUDS BELOW 12000 FEET WITH NO
SIGNIFICANT WEATHER AND/OR OBSTRUCTIONS TO VISIBILITY.

* THESE STATIONS ARE NOT UNDER NWS QUALITY CONTROL. THEY DO NOT
   REPORT WEATHER SUCH AS PRECIPITATION OR FOG.

MTZ001>007-043-300400-
WEST OF THE DIVIDE
CITY           SKY/WX    TMP DP  RH WIND       PRES   REMARKS
KALISPELL      MOCLDY    46  34  63 SE5       30.12S
MISSOULA       PTCLDY    48  34  59 N7        30.18R
BUTTE          CLEAR     46  25  44 NW6       30.18R
MULLAN PASS    MOCLDY    37  30  76 VRB5      30.17F WCI  33
* ESSEX        N/A       45  34  65 SW2G9      N/A
* EUREKA APT   MOCLDY    54  34  47 SE9        N/A
* HAMILTON APT CLEAR     43  30  60 SE2       30.17S
* LIBBY APT    CLOUDY    52  36  55 CALM      30.12S
* LINCOLN      N/A       49  29  46 SW7G24     N/A
* LOOKOUT PASS N/A       43  34  71 E2G8       N/A
* POLSON       N/A       48  35  61 SE1        N/A
* SEELEY LAKE  N/A       47  30  52 W2G10      N/A
* THOMP F APT  MOCLDY    44  14  30 N2G9       N/A
$$

MTZ008-052>055-300400-
SOUTHWEST MONTANA
CITY           SKY/WX    TMP DP  RH WIND       PRES   REMARKS
BOZEMAN        PTCLDY    50  25  38 SW6       30.12R
DILLON         CLEAR     48  21  34 W12       30.15R
* W YELLOWSTON CLEAR     37  18  46 W1         N/A
* BOULDER HILL N/A       43  20  40 SW1        N/A
* HOMESTAKE PS N/A       42  24  49 NW5        N/A
* MONIDA PASS  N/A       43  16  34 SE11       N/A
* RAYNOLDS PAS N/A       38  26  62 S6         N/A   WCI  33
* WHITEHALL    N/A       52  23  32 NW6G19     N/A
* WISE RIVER   N/A       45  24  44 W8G15      N/A
$$

MTZ009>010-012-014-046-048-049-054-300400-
EAST SLOPES AND CENTRAL MONTANA
CITY           SKY/WX    TMP DP  RH WIND       PRES   REMARKS
CUT BANK       CLOUDY    48  30  50 W25       29.96F
GREAT FALLS    CLOUDY    54  28  37 SW24G30   30.01R
HELENA         PTCLDY    54  28  37 W9        30.12R
* CONRAD       CLOUDY    52  32  47 SW14G21    N/A
* DEARBORN     N/A       56  29  36 S15G22     N/A
* EAST GLACIER N/A       45  29  54 W14G19     N/A
* MONARCH      N/A       48  20  33 W23G30     N/A
* PENDROY      N/A       42  27  55 E3         N/A
* ROGERS PASS  N/A       44  28  53 E9G19      N/A
* SAINT MARY   N/A       46  28  50 S10G29     N/A
* WHITE SULPH  N/A       50  25  38 W8G18      N/A
$$

MTZ011-013-016-021-035-040-045-047-050-051-300400-
NORTH CENTRAL MONTANA
CITY           SKY/WX    TMP DP  RH WIND       PRES   REMARKS
HAVRE          PTCLDY    50  32  50 SW13      29.93R
LEWISTOWN      MOCLDY    45  28  51 W7        30.01R
* N BAR RANCH  CLEAR     43  27  53 CALM      30.02F
* CHINOOK      MOCLDY    55  30  39 W13       29.91R
* FORT BENTON  MOCLDY    54  28  37 SW14      29.98S
* CHESTER      N/A       52  28  40 W8G20      N/A
* DENTON       N/A       52  25  35 W15        N/A
* GEYSER       N/A       49  23  36 W14G24     N/A
* JUDITH GAP   N/A       50  19  29 W4         N/A
* LOMA         N/A       54  28  37 W7         N/A
$$

MTZ017>020-022>027-061-062-300400-
NORTHEAST MONTANA
CITY           SKY/WX    TMP DP  RH WIND       PRES   REMARKS
GLASGOW        PTCLDY    50  30  46 SW8       29.89F
GLENDIVE       PTCLDY    41  30  65 W7        29.97S
JORDAN         MOCLDY    45  34  65 W6        29.95S
SIDNEY         MOCLDY    45  32  60 SW8       29.93F
WOLF POINT     CLEAR     45  34  65 S6        29.91F
* BEAVER HILL  N/A       47  29  50 SW8        N/A
* CIRCLE       N/A       48  34  59 N/A        N/A
* LINDSAY DVD  N/A       47  29  50 SW9        N/A
* NAVAJO       N/A       44  33  65 W12        N/A
* PLENTYWOOD A PTCLDY    48  34  59 W7        29.88F
* POPLAR APT   PTCLDY    50  34  54 S6        29.91F
* SACO         N/A       50  32  50 SW12       N/A
$$

MTZ028>042-056>058-300400-
SOUTHCENTRAL AND SOUTHEAST MONTANA
CITY           SKY/WX    TMP DP  RH WIND       PRES   REMARKS
BAKER          PTCLDY    45  30  56 SW10      29.99F
BILLINGS       MOCLDY    54  19  25 N6        30.03R
LIVINGSTON     MOCLDY    57  19  23 SW23      30.07R
MILES CITY     PTCLDY    48  27  44 SW6       29.98S
* BIG TIMBER A PTCLDY    55  19  24 SW10      30.07R
* FORSYTH APT  PTCLDY    46  27  48 CALM      29.99S
* ALZADA       N/A       46  25  44 N/A        N/A
* HYSHAM       N/A       52  18  26 N/A        N/A
* LAME DEER    N/A       51  18  27 N/A        N/A
* REED POINT   N/A       53  21  29 SE4        N/A
* ROSCOE HILL  N/A       51  10  19 S1G7       N/A
$$

REGIONAL REPORTS...DAKOTAS
CITY           SKY/WX    TMP DP  RH WIND       PRES   REMARKS
WILLISTON      MOCLDY    48  34  59 SW9       29.90F
DICKINSON      MOCLDY    43  30  60 SW3       29.94F
BEACH          CLEAR     41  32  70 SW8       29.98R
CROSBY         CLEAR     45  36  71 CALM      29.88F
TIOGA          CLEAR     41  36  82 SW10      29.92F
WATFORD CITY   CLEAR     45  34  65 W6        29.91S
BISMARCK       PTCLDY    43  28  56 CALM      29.97S
GRAND FORKS    FAIR      37  28  70 W9        29.90R WCI  30
FARGO          CLOUDY    43  28  56 SW8       29.92S
BUFFALO SD     CLOUDY    46  28  50 W6        29.95S
RAPID CITY     MOCLDY    45  27  49 CALM      30.06R
$$

REGIONAL REPORTS...WYOMING/IDAHO/WASHINGTON
CITY           SKY/WX    TMP DP  RH WIND       PRES   REMARKS
GILLETTE       PTCLDY    37  27  67 SW3       30.07S
SHERIDAN       CLEAR     39  28  65 CALM      30.05S
CODY           CLEAR     55  14  20 W14G24    30.10R
YELLOWSTONE LA CLEAR     30  18  61 NW3       30.28R
SALMON         PTCLDY    48  27  44 SE3       30.16R
MULLAN PASS    MOCLDY    37  30  76 VRB5      30.17S WCI  33
SAND POINT     CLOUDY    50  39  66 CALM      30.13R
SPOKANE        CLOUDY    54  37  53 CALM      30.13R
$$

REGIONAL REPORTS...ALBERTA
CITY           SKY/WX    TMP DP  RH WIND       PRES   REMARKS
CALGARY        FAIR      46  30  54 N9        29.88R
LETHBRIDGE     MOCLDY    50  32  50 VRB6      29.95S
MEDICINE HAT   PTCLDY    52  36  55 SW20G26   29.82S
EDMONTON       MOCLDY    41  34  76 W5        29.79R
WATERTON GATE  N/A       48  28  46 SW17G26    N/A
CARDSTON       N/A       48  32  54 W3         N/A
MILK RIVER     N/A       48  32  54 W18        N/A
$$

REGIONAL REPORTS...SASKATCHEWAN
CITY           SKY/WX    TMP DP  RH WIND       PRES   REMARKS
SWIFT CURRENT  CLOUDY    43  34  71 SW10      29.78F
REGINA         PTCLDY    43  36  76 SE9       29.83F
VAL MARIE      N/A       43  32  65 SW8        N/A
ASSINIBOIA     N/A       41  32  70 W7         N/A
CORONACH       N/A       45  32  60 SW9        N/A

$$



USA.gov is the U.S. government's official web portal to all federal, state and local government web resources and services.